www.pogodaiklimat.ru

Погода и климат >> Архив погоды >> Россия >> Свердловская область >> Екатеринбург


АРХИВ ПОГОДЫ в Екатеринбурге

Время (UTC), дата Ветер
(напр.,м/с)
 
Видим.   Явления Облачность Т
(С)
Тd
(С)
f
(%)
Тe
(С)
Тes
(С)
Комфортность P
(гПа)
Po
(гПа)
Тmin
(С)
Tmax
(С)
R
(мм)
R24
(мм)
S
(см)
21 4.12 Ю 1 10 км 10/0
[Ac und]
-4.3 -7.3 80 -7 -7 тепло 1034.9 998.8
00 5.12 З 2 10 км 10/0
[Ac und]
-4.4 -8.0 76 -8 -8 тепло 1034.9 998.7
03 5.12 З 2 10 км 10/0
[Ac und]
-4.6 -8.0 77 -9 -9 по сезону 1034.7 998.5 -6.3 12
06 5.12 ЮЗ 2 10 км слабый снег 10/0
[As op]
-4.0 -7.2 78 -8 -8 тепло 1034.1 998.1
09 5.12 ЮЗ 3 10 км в посл. час снег 10/0
[As op]
-3.6 -7.5 74 -9 -9 по сезону 1033.7 997.7
12 5.12 З 2 10 км {снег} 8/3 600 м
[Sc Cs]
-4.3 -7.6 78 -8 -8 по сезону 1033.3 997.2
15 5.12 Ю 1 10 км 9/8 600 м
[Sc Cs]
-5.4 -7.8 83 -8 -8 тепло 1032.9 996.7 -3.6 0.0
18 5.12 ЮЗ 1 10 км 9/8 600 м
[Sc Ci fib]
-5.3 -9.9 70 -7 -7 тепло 1032.1 996.0
21 5.12 З 2 10 км 9/9 600 м
[Sc]
-4.1 -8.6 71 -8 -8 тепло 1031.6 995.7
00 6.12 З 3 10 км 9/9 600 м
[Sc]
-4.3 -8.2 74 -10 -10 по сезону 1031.6 995.6
03 6.12 З 3 10 км 9/9 600 м
[Sc]
-4.6 -8.6 74 -10 -10 по сезону 1031.4 995.4 -5.5 11
06 6.12 З 3 20 км 10/8 600 м
[Sc Ac As]
-4.8 -8.2 77 -10 -10 по сезону 1031.1 995.1
09 6.12 З 4 20 км 10/6 600 м
[Sc Ac As]
-4.2 -7.7 77 -10 -10 по сезону 1030.8 994.8
12 6.12 З 4 10 км 10/0
[Ac und]
-4.1 -6.8 81 -10 -10 по сезону 1030.6 994.7
15 6.12 З 3 10 км 10/0
[Ac As]
-4.7 -6.7 86 -10 -10 по сезону 1030.4 994.4 -3.7
18 6.12 З 2 4000 м дымка 10/0
[Ac As]
-4.4 -5.9 89 -9 -9 по сезону 1030.0 994.0
21 6.12 СЗ 2 4000 м дымка 10/0
[As op]
-4.1 -5.6 89 -8 -8 тепло 1029.3 993.4
00 7.12 Ю 2 4000 м дымка 10/0
[As op]
-4.6 -5.6 93 -9 -9 тепло 1028.7 992.6
03 7.12 ЮЗ 1 4000 м дымка 10/0
[As op]
-5.5 -6.7 91 -8 -8 тепло 1027.8 991.8 -5.5 11
06 7.12 Ю 1 1000 м дымка {туман} 10/10 100 м
[St]
-6.1 -7.4 90 -9 -9 по сезону 1027.5 991.4 -6.2
09 7.12 ЮВ 1 4000 м дымка 8/3 300 м
[St Cs]
-5.6 -8.0 83 -8 -8 тепло 1026.7 990.7
12 7.12 ЮВ 2 10 км 10/0
[Cs]
-6.7 -8.6 86 -11 -11 по сезону 1026.2 990.1
15 7.12 ЮВ 2 4000 м дымка ясно -9.2 -11.0 87 -14 -14 по сезону 1026.0 989.5 -4.4
18 7.12 ЮВ 1 10 км ясно -10.1 -12.1 85 -12 -12 по сезону 1025.8 989.2
21 7.12 ЮВ 3 10 км ясно -10.0 -13.3 77 -16 -16 по сезону 1025.1 988.5
00 8.12 ЮВ 3 10 км ясно -10.5 -15.3 68 -16 -16 по сезону 1024.3 987.7
03 8.12 ЮВ 2 10 км ясно -10.9 -16.4 64 -15 -15 по сезону 1024.4 987.8 -11.6 11
06 8.12 ЮВ 2 20 км 9/4 600 м
[Sc Cs]
-9.5 -18.0 50 -14 -14 по сезону 1024.8 988.3
09 8.12 ЮВ 3 20 км 9/8 600 м
[Sc Cs]
-7.4 -18.1 42 -13 -13 по сезону 1024.1 988.0
12 8.12 ЮВ 3 10 км 9/8 600 м
[Sc Ci fib]
-6.3 -17.6 40 -11 -11 по сезону 1023.5 987.5
15 8.12 ЮВ 2 10 км 8/6 600 м
[Sc Cs]
-7.9 -17.0 48 -12 -12 по сезону 1024.1 987.9 -6.1
18 8.12 ЮВ 2 10 км 8/6 600 м
[Sc Cs]
-10.2 -16.7 59 -15 -15 по сезону 1024.8 988.2
21 8.12 Ю 1 10 км 8/8 600 м
[Sc]
-9.5 -15.6 61 -12 -12 по сезону 1024.7 988.2
00 9.12 штиль 0 10 км 9/9 600 м
[Sc]
-7.7 -13.1 65 -8 -8 тепло 1024.4 988.2
03 9.12 штиль 0 10 км 9/9 600 м
[Sc]
-6.6 -11.4 69 -7 -7 тепло 1024.2 988.1 -10.3 9
06 9.12 ЮВ 1 20 км 10/0
[Ac und]
-5.2 -9.9 70 -7 -7 тепло 1024.8 988.9
09 9.12 ЮВ 1 20 км 10/0
[Ac und]
-3.7 -9.4 65 -6 -5 тепло 1024.1 988.5
12 9.12 В 1 10 км 10/5 600 м
[Sc Ac und]
-3.6 -9.7 63 -5 -5 тепло 1024.1 988.5
15 9.12 В 1 10 км 10/6 600 м
[Sc Ac und]
-4.0 -11.7 55 -6 -6 тепло 1023.8 988.1 -3.3
18 9.12 ЮВ 2 10 км 10/0
[Ci fib]
-8.0 -11.7 75 -12 -12 по сезону 1024.5 988.2
21 9.12 ЮВ 1 10 км 10/0
[Ci fib]
-10.5 -13.2 81 -13 -13 по сезону 1024.6 988.0
00 10.12 ЮВ 1 10 км 10/0
[Ci fib]
-12.3 -14.3 85 -15 -15 по сезону 1024.8 987.9
03 10.12 Ю 1 10 км 10/3 600 м
[Sc Ci fib]
-12.7 -14.7 85 -15 -15 по сезону 1024.8 987.9 -13.3 9
06 10.12 Ю 1 4000 м дымка 10/0
[Ac trans Ci fib]
-9.6 -13.4 74 -12 -12 по сезону 1025.1 988.6
09 10.12 штиль 0 10 км 10/0
[Cc]
-3.7 -12.1 52 -4 -4 тепло 1024.4 988.7
12 10.12 З 2 10 км 10/0
[Ac trans Cc]
-5.0 -10.3 66 -9 -9 по сезону 1025.3 989.4
15 10.12 З 2 10 км 10/4 600 м
[Sc Cc]
-5.2 -8.4 78 -9 -9 по сезону 1026.3 990.4 -2.6
18 10.12 З 2 10 км 8/8 600 м
[Sc]
-5.8 -7.9 85 -10 -10 по сезону 1027.0 991.0
21 10.12 З 2 10 км 10/10 600 м
[Sc]
-6.3 -8.0 88 -11 -11 по сезону 1027.5 991.4
00 11.12 З 3 10 км 10/3 600 м
[Sc Ac As]
-6.0 -7.9 86 -12 -12 по сезону 1027.9 991.8
03 11.12 З 2 10 км 10/0
[Ac As]
-6.9 -8.6 88 -11 -11 по сезону 1028.1 991.9 -6.9 9
06 11.12 З 3 10 км 10/10 600 м
[Sc]
-6.4 -8.2 87 -12 -12 по сезону 1028.4 992.3 -7.0
09 11.12 З 2 20 км 8/8 600 м
[Sc Cs]
-4.6 -8.0 77 -9 -9 по сезону 1027.7 991.8
12 11.12 З 2 10 км 9/9 600 м
[Sc]
-4.3 -7.7 77 -8 -8 тепло 1028.2 992.3
15 11.12 З 3 10 км 8/8 600 м
[Sc]
-4.5 -7.8 78 -10 -10 по сезону 1028.2 992.3 -3.6
18 11.12 З 2 10 км 9/9 600 м
[Sc]
-4.8 -8.1 78 -9 -9 тепло 1028.4 992.5

 

Местоположение метеостанции Екатеринбург (Свердловская область, Россия): широта 56.83 долгота 60.63 высота над уровнем моря 281 м.

В архиве по умолчанию представлена погода в Екатеринбурге за последнюю неделю. Архивные данные за месяц целиком и за предыдущие месяцы, начиная с января 2011 года, Вы можете получить, выбрав интересующий диапазон дат из раскрывающегося списка и нажав кнопку "Ввод!".


*Определитесь, кто Вы:
робот инопланетянин человек

Внимание! Время в таблицах - всемирное. Для получения местного времени необходимо прибавить поправку, которая в Екатеринбурге равна 5 ч.

Смотрите также архив погоды в соседних городах и на ближайших метеорологических станциях:

Погода в Екатеринбурге (Бот.сад) (Свердловская область, Россия) (5 км)
Погода в Верхнем Дуброво (Свердловская область, Россия) (29 км)
Погода в Сысерти (Свердловская область, Россия) (38 км)
Погода в Ревде (Свердловская область, Россия) (40 км)
Погода в Мариинске (Свердловская область, Россия) (52 км)
Погода в Невьянске (Свердловская область, Россия) (78 км)
Погода в Верхнем Уфалее (Челябинская область, Россия) (86 км)
Погода в Каменск-Уральском (Свердловская область, Россия) (88 км)
Погода в Бисерти (Свердловская область, Россия) (95 км)
Погода в Артемовском (Свердловская область, Россия) (98 км)

Пояснения к столбцам:

Ветер - указаны скорость ветра в м/с - средняя за 10 мин, порывы в срок и между сроками (в фигурных скобках) и направление, откуда дует ветер: С - северный, СВ - северо-восточный, В - восточный, ЮВ - юго-восточный, Ю - южный, ЮЗ - юго-западный, З - западный, СЗ - северо-западный.
Видимость - горизонтальная дальность видимости в метрах или километрах. При видимости от 1 до 10 км при отсутствии осадков обычно наблюдается дымка, при ухудшении видимости до 1 км и менее - туман. В сухую погоду видимость может ухудшаться дымом, пылью или мглою.
Явления - указаны атмосферные явления, наблюдавшиеся в срок или в последний час перед сроком; фигурными скобками обозначены явления, наблюдавшиеся между сроками (за 1-3 часа до срока); квадратными скобками обозначены град или гололедные отложения с указанием их диаметра в мм.
Облачность - указаны через наклонную черту общая и нижняя облачность в баллах и высота нижней границы облаков в метрах; квадратными скобками обозначены формы облаков: Ci - перистые, Cs - перисто-слоистые, Cc - перисто-кучевые, Ac - высококучевые, As - высокослоистые, Sc - слоисто-кучевые, Ns - слоисто-дождевые, Cu - кучевые, Cb - кучево-дождевые. Подробнее классификацию облаков см. в Атласе облаков (PDF).
T - Температура воздуха - температура, измеренная на высоте 2 м над землей.
Td - Температура точки росы - температура, при понижении до которой содержащийся в воздухе водяной пар достигнет насыщения.
f - Относительная влажность воздуха - влажноcть воздуха, измеренная на высоте 2 м над землей.
Te - Эффективная температура - температура, которую ощущает одетый по сезону человек в тени. Характеристика душности погоды. При расчете учитывается влияние влажности воздуха и скорости ветра на теплоощущения человека.
Tes - Эффективная температура на солнце - температура, которую ощущает человек, с поправкой на солнечный нагрев. Характеристика знойности погоды. Зависит от высоты солнца над горизонтом, облачности и скорости ветра. Ночью, в пасмурную погоду, а также при ветре 12 м/с и более поправка равна нулю.
P - Атмосферное давление - приведенное к уровню моря атмосферное давление.
Po - Атмосферное давление - измеренное на уровне метеостанции атмосферное давление.
Tmin - Минимальная температура - минимум температуры воздуха на высоте 2 м над землей.
Tmax - Максимальная температура - максимум температуры воздуха на высоте 2 м над землей.
R - Количество осадков - Количество выпавших осадков за период времени, мм. При наведении курсора мыши на число - период времени, за который выпало указанное количество осадков.
R24 - Количество осадков - Количество выпавших осадков за 24 часа, мм.
S - Снежный покров - Высота снежного покрова, см. При наведении курсора мыши на число - состояние снежного покрова и степень покрытия местности в баллах.